Terminal Aerodrome Forecast
Issued by NWS Raleigh/Durham, NC

Home | Current Version | Previous Version | Text Only | Print | Product List | Glossary On
Versions: 1 2 3 4 5 6 7 8 9 10 11 12 13 14 15 16 17 18
000
FTUS42 KRAH 171736
TAFFAY
TAF
KFAY 171736Z 1718/1818 04011KT P6SM BKN250
      TEMPO 1809/1813 FEW008=

USA.gov is the U.S. government's official web portal to all federal, state and local government web resources and services.